Tracking 30918 objects as of 2-Jul-2025
HD Live streaming from Space Station
objects crossing your sky now

STARLINK-6039

Track STARLINK-6039 now!
10-day predictions
STARLINK-6039 is classified as:


NORAD ID: 56319
Int'l Code: 2023-058C
Perigee: 569.0 km
Apogee: 571.3 km
Inclination: 97.7 °
Period: 95.9 minutes
Semi major axis: 6941 km
RCS: Unknown
Launch date: April 27, 2023
Source: United States (US)
Launch site: AIR FORCE WESTERN TEST RANGE (AFWTR)
Your satellite tracking list
Your tracking list is empty




NASA's NSSDC Master Catalog

Two Line Element Set (TLE):
1 56319U 23058C   25182.99194893 -.00000341  00000-0 -21930-4 0  9991
2 56319  97.6533 184.3338 0001706  64.5672 295.5729 15.01259953120027
Source of the keplerian elements: AFSPC